This is the latest recevied weather packets stored in our database for station/object DK8HC-WX. If no packets are shown the sender has not sent any weather packets the latest 10 day(s).
| Time | Temp. | Humidity | Pressure | Rain* | Wind** | Luminosity | Snow |
|---|---|---|---|---|---|---|---|
| 1777707101 | 22.22° C | 63% | 1022.6 hPa | - | - | - | - |
| 1777706501 | 21.67° C | 65% | 1022.7 hPa | - | - | - | - |
| 1777705900 | 20.56° C | 68% | 1022.9 hPa | - | - | - | - |
| 1777705301 | 21.11° C | 72% | 1023.1 hPa | - | - | - | - |
| 1777704701 | 20° C | 76% | 1023.1 hPa | - | - | - | - |
| 1777704101 | 18.89° C | 79% | 1023 hPa | - | - | - | - |
| 1777703500 | 18.89° C | 80% | 1023 hPa | - | - | - | - |
| 1777702900 | 18.33° C | 85% | 1022.7 hPa | - | - | - | - |
| 1777702300 | 18.33° C | 89% | 1022.6 hPa | - | - | - | - |
| 1777701701 | 17.78° C | 90% | 1022.6 hPa | - | - | - | - |
| 1777701100 | 17.78° C | 96% | 1022.4 hPa | - | - | - | - |
| 1777700500 | 16.67° C | 100% | 1022.2 hPa | - | - | - | - |
| 1777699900 | 16.11° C | 100% | 1022.2 hPa | - | - | - | - |
| 1777699300 | 15.56° C | 100% | 1022.3 hPa | - | - | - | - |
| 1777698700 | 15° C | 100% | 1022.2 hPa | - | - | - | - |
| 1777698100 | 13.89° C | 100% | 1022.1 hPa | - | - | - | - |
| 1777697500 | 13.33° C | 100% | 1022.1 hPa | - | - | - | - |
| 1777696900 | 13.33° C | 100% | 1022.1 hPa | - | - | - | - |
| 1777696300 | 12.78° C | 100% | 1022.1 hPa | - | - | - | - |
| 1777695700 | 12.22° C | 100% | 1022 hPa | - | - | - | - |
| 1777695100 | 11.11° C | 100% | 1022.1 hPa | - | - | - | - |
| 1777694500 | 11.11° C | 100% | 1022.1 hPa | - | - | - | - |
| 1777693900 | 11.67° C | 100% | 1022.1 hPa | - | - | - | - |
| 1777693300 | 11.67° C | 100% | 1022.2 hPa | - | - | - | - |
| 1777692700 | 11.67° C | 100% | 1022.4 hPa | - | - | - | - |
* Rain since midnight (hover to see other rain measurements)
** Current wind speed in m/s (hover to see current wind gust speed)